Location: 3 Angels Observatory
(30.5437°N, 88.5068°W)
Time: 18:26:51
(UTC-05:00)

Oscar 19 - Visible Passes

Search period start: 22 May 2018 00:00
Search period end: 01 June 2018 00:00
Orbit: 774 x 790 km, 98.6° (Epoch: 22 May)

Date Brightness Start Highest point End Pass type
(mag) Time Alt. Az. Time Alt. Az. Time Alt. Az.
22 May 13.4 01:20:01 10° ENE 01:20:08 10° ENE 01:20:08 10° ENE visible
22 May 11.6 02:57:06 10° N 03:00:41 39° NNW 03:00:41 39° NNW visible
23 May 11.8 02:25:09 10° NNE 02:28:29 40° NNE 02:28:29 40° NNE visible
23 May 12.9 04:08:28 10° WNW 04:08:55 10° WNW 04:09:02 10° WNW visible
24 May 12.6 01:53:46 10° NE 01:56:16 24° NE 01:56:16 24° NE visible
24 May 12.2 03:33:33 10° NNW 03:36:50 22° WNW 03:36:50 22° WNW visible
25 May 13.3 01:23:26 10° ENE 01:24:03 12° ENE 01:24:03 12° ENE visible
25 May 11.6 03:00:54 10° N 03:04:37 39° NW 03:04:37 39° NW visible
26 May 11.6 02:28:53 10° NNE 02:32:24 44° NNE 02:32:24 44° NNE visible
27 May 12.4 01:57:26 10° NNE 02:00:11 27° NE 02:00:11 27° NE visible
27 May 12.3 03:37:27 10° NNW 03:40:45 20° WNW 03:40:45 20° WNW visible
28 May 13.2 01:26:54 10° NE 01:27:58 13° ENE 01:27:58 13° ENE visible
28 May 11.5 03:04:42 10° N 03:08:32 38° NW 03:08:32 38° NW visible
29 May 11.4 02:32:37 10° NNE 02:36:18 48° NNE 02:36:18 48° NNE visible
30 May 12.2 02:01:06 10° NNE 02:04:05 30° NE 02:04:05 30° NE visible
30 May 12.3 03:41:22 10° NNW 03:44:39 19° WNW 03:44:39 19° WNW visible
31 May 13.0 01:30:25 10° NE 01:31:52 15° ENE 01:31:52 15° ENE visible
31 May 11.6 03:08:31 10° N 03:12:25 36° NW 03:12:25 36° NW visible
